Weather reports worldwide

Advertisment
Lugo/Rozas, Spain (8008): temperature & dewpoint: 06.12.2019 11:00:00 - 12.12.2019 11:00:00 (CET)Lugo/Rozas, Spain (8008): wind speed: 06.12.2019 11:00:00 - 12.12.2019 11:00:00 (CET)Lugo/Rozas, Spain (8008): wind direction: 06.12.2019 11:00:00 - 12.12.2019 11:00:00 (CET)Lugo/Rozas, Spain (8008): reduced air pressure: 06.12.2019 11:00:00 - 12.12.2019 11:00:00 (CET)Lugo/Rozas, Spain (8008): visibility: 06.12.2019 11:00:00 - 12.12.2019 11:00:00 (CET)Lugo/Rozas, Spain (8008): precipitation: 06.12.2019 11:00:00 - 12.12.2019 11:00:00 (CET)
Date & Time tt [°C] td [°C] ff [km/h] ff [kn] dd ppp [hPa] vv [km] rr [mm]
12.12.2019 11:00:00 8,4 8,1 16 9 SW 1016,4 4,2 2,0
12.12.2019 10:00:00 7,9 7,3 15 8 SW 1017,1 15 -
12.12.2019 09:00:00 7,9 7,6 11 6 W 1018,6 2,0 3,0
12.12.2019 08:00:00 7,8 6,9 11 6 SW 1018,4 20 0,0
12.12.2019 07:00:00 8,1 7,2 18 10 WSW 1019,2 18 -
12.12.2019 06:00:00 8,0 7,4 15 8 WSW 1019,9 13 0,6
12.12.2019 05:00:00 7,9 7,6 16 9 WSW 1021,0 6 1,0
12.12.2019 04:00:00 7,8 7,5 9 5 SW 1021,9 11 -
12.12.2019 03:00:00 7,5 7,2 9 5 SW 1023,0 8 1,0
12.12.2019 02:00:00 7,5 7,1 11 6 SW 1023,7 11 0,4
12.12.2019 01:00:00 7,4 6,8 11 6 SW 1024,9 11 -
12.12.2019 00:00:00 7,3 6,9 9 5 SW 1025,6 - 0,4
11.12.2019 23:00:00 7,4 6,7 9 5 SW 1026,1 4,2 0,4
11.12.2019 22:00:00 7,4 6,7 11 6 SW 1026,1 18 -
11.12.2019 21:00:00 7,6 6,4 13 7 WSW 1026,7 20 0,0
11.12.2019 20:00:00 7,4 6,5 11 6 SW 1027,0 19 0,0
11.12.2019 19:00:00 7,7 6,6 9 5 WSW 1027,2 11 -
11.12.2019 18:00:00 7,9 6,7 13 7 W 1027,2 19 0,0
11.12.2019 17:00:00 8,0 6,8 16 9 W 1027,1 20 0,2
11.12.2019 16:00:00 8,1 6,6 11 6 WSW 1026,5 19 -
11.12.2019 15:00:00 7,4 6,3 11 6 SW 1027,3 6 0,4
11.12.2019 14:00:00 8,1 5,9 11 6 W 1027,6 17 0,0
11.12.2019 13:00:00 8,2 5,1 13 7 WSW 1028,2 20 -
11.12.2019 12:00:00 7,8 5,4 11 6 SW 1029,0 19 0,0
11.12.2019 11:00:00 6,4 5,0 9 5 SW 1029,0 19 0,0
11.12.2019 10:00:00 5,2 4,6 2 1 S 1028,8 25 -
11.12.2019 09:00:00 4,3 3,6 5 3 SW 1028,2 13 0,0
11.12.2019 08:00:00 5,3 4,3 5 3 SW 1027,4 19 0,0
11.12.2019 07:00:00 6,6 5,9 2 1 W 1026,6 20 -
11.12.2019 06:00:00 7,1 6,5 2 1 W 1025,6 19 0,2
11.12.2019 05:00:00 7,1 6,8 4 2 WNW 1025,4 6 2,0
11.12.2019 04:00:00 7,4 7,1 5 3 NNW 1024,7 8 -
11.12.2019 03:00:00 8,4 8,1 9 5 WNW 1023,4 2,0 0,4
11.12.2019 02:00:00 8,7 7,9 11 6 WSW 1022,7 - 0,4
11.12.2019 01:00:00 9,0 7,3 13 7 SSW 1022,4 15 -
11.12.2019 00:00:00 10,2 5,4 11 6 SSW 1022,5 20 0,0
10.12.2019 23:00:00 10,1 2,2 9 5 S 1023,2 20 0,0
10.12.2019 22:00:00 10,4 1,2 11 6 S 1023,4 20 -
10.12.2019 21:00:00 10,7 1,0 11 6 SSW 1024,1 20 0,0
10.12.2019 20:00:00 11,0 -0,8 15 8 SW 1024,5 20 0,0
10.12.2019 19:00:00 10,5 1,8 8 4 S 1024,4 20 -
10.12.2019 18:00:00 10,8 3,3 5 3 SSW 1024,8 20 0,0
10.12.2019 17:00:00 12,0 4,0 9 5 S 1024,6 20 0,0
10.12.2019 16:00:00 12,1 3,1 11 6 SW 1025,1 20 -
10.12.2019 15:00:00 11,1 4,5 8 4 SW 1025,8 18 0,0
10.12.2019 14:00:00 10,3 3,6 8 4 SSW 1026,6 20 0,0
10.12.2019 13:00:00 8,1 5,2 5 3 S 1028,1 25 -
10.12.2019 12:00:00 5,6 5,3 2 1 NE 1029,7 20 0,0
10.12.2019 11:00:00 3,7 3,7 2 1 WNW 1030,2 19 0,0
10.12.2019 10:00:00 1,3 1,3 5 3 ESE 1031,2 25 -
10.12.2019 09:00:00 0,0 -0,1 2 1 SE 1031,6 8 0,0
10.12.2019 08:00:00 -0,2 -0,5 2 1 SSE 1031,7 7 0,0
10.12.2019 07:00:00 -0,1 -0,2 4 2 SSE 1031,9 15 -
10.12.2019 06:00:00 0,3 0,0 0 0 N 1032,2 3,3 0,0
10.12.2019 05:00:00 0,4 0,4 2 1 W 1032,5 0,5 0,0
10.12.2019 04:00:00 0,5 0,5 2 1 SE 1033,2 0,1 -
10.12.2019 03:00:00 0,3 -0,1 2 1 SW 1033,5 0,2 0,0
10.12.2019 02:00:00 0,6 0,2 4 2 SW 1034,0 8 0,0
10.12.2019 01:00:00 1,3 1,0 4 2 E 1034,4 3,5 -
10.12.2019 00:00:00 2,1 1,5 4 2 S 1035,0 6 0,0
09.12.2019 23:00:00 3,2 2,9 5 3 SE 1034,5 - 0,0
09.12.2019 22:00:00 4,0 3,4 2 1 SSE 1034,5 3,2 -
09.12.2019 21:00:00 5,9 5,2 2 1 SE 1034,1 3,6 0,0
09.12.2019 20:00:00 6,6 5,9 5 3 SE 1034,1 10 0,0
09.12.2019 19:00:00 7,8 6,7 8 4 SE 1033,7 12 -
09.12.2019 18:00:00 9,9 7,7 2 1 S 1033,4 14 0,0
09.12.2019 17:00:00 10,9 7,2 2 1 SSW 1033,0 17 0,0
09.12.2019 16:00:00 11,0 7,3 2 1 N 1032,9 16 -
09.12.2019 15:00:00 10,8 7,1 4 2 ESE 1032,9 16 0,0
09.12.2019 14:00:00 10,7 7,4 4 2 WSW 1032,9 8 0,0
09.12.2019 13:00:00 10,1 7,3 5 3 WSW 1033,8 20 -
09.12.2019 12:00:00 9,5 6,9 4 2 S 1034,4 7 0,0
09.12.2019 11:00:00 8,6 6,4 2 1 SSW 1034,5 11 0,0
09.12.2019 10:00:00 7,4 5,7 8 4 SSE 1033,9 20 -
09.12.2019 09:00:00 7,1 5,6 2 1 S 1033,6 8 0,0
09.12.2019 08:00:00 6,7 5,3 8 4 SSW 1033,2 6 0,0
09.12.2019 07:00:00 6,6 5,2 8 4 SW 1032,5 15 -
09.12.2019 06:00:00 7,1 5,6 5 3 SSW 1032,4 7 0,0
09.12.2019 05:00:00 6,8 5,4 8 4 SSW 1032,4 6 0,0
09.12.2019 04:00:00 6,6 5,5 8 4 SSW 1032,2 8 -
09.12.2019 03:00:00 5,9 5,6 5 3 SSW 1032,2 8 0,0
09.12.2019 02:00:00 5,2 4,8 5 3 SW 1032,1 6 0,0
09.12.2019 01:00:00 6,6 5,7 8 4 SW 1031,7 7 -
09.12.2019 00:00:00 6,2 5,6 4 2 SSW 1031,6 8 0,0
08.12.2019 23:00:00 6,6 6,6 4 2 SSW 1031,4 7 0,0
08.12.2019 22:00:00 6,1 6,1 2 1 S 1030,9 6 -
08.12.2019 21:00:00 5,6 5,6 4 2 S 1030,8 - 0,0
08.12.2019 20:00:00 6,0 5,3 2 1 S 1029,9 1,1 0,0
08.12.2019 19:00:00 7,6 6,8 2 1 S 1029,1 4,4 -
08.12.2019 18:00:00 9,5 7,9 2 1 NW 1028,3 8 0,0
08.12.2019 17:00:00 11,1 10,0 4 2 NNW 1026,6 14 0,0
08.12.2019 16:00:00 11,7 11,1 8 4 NNW 1026,0 4,5 -
08.12.2019 15:00:00 13,5 12,9 5 3 NW 1025,1 2,5 0,0
08.12.2019 14:00:00 13,1 12,8 8 4 WSW 1024,8 0,6 0,0
08.12.2019 13:00:00 12,7 12,4 9 5 SW 1024,9 0,5 -
08.12.2019 12:00:00 12,1 11,9 5 3 SW 1025,5 0,6 0,4
08.12.2019 11:00:00 11,7 11,4 8 4 SSW 1025,1 0,7 0,0
08.12.2019 10:00:00 11,4 11,1 8 4 SSW 1024,3 0,9 -
08.12.2019 09:00:00 11,2 10,9 5 3 SW 1024,0 1,5 2,0
08.12.2019 08:00:00 11,1 10,5 8 4 S 1023,3 1,6 0,0
08.12.2019 07:00:00 11,2 10,6 8 4 SSW 1023,3 0,9 -
08.12.2019 06:00:00 11,2 10,4 8 4 SSW 1023,4 0,7 0,0
08.12.2019 05:00:00 11,3 10,7 9 5 SSW 1023,5 0,9 0,0
08.12.2019 04:00:00 11,3 10,5 9 5 SSW 1023,7 1,6 -
08.12.2019 03:00:00 11,2 10,4 9 5 SSW 1023,8 1,5 0,0
08.12.2019 02:00:00 11,3 10,4 9 5 SSW 1023,9 20 0,0
08.12.2019 01:00:00 11,3 10,4 9 5 SSW 1024,3 20 -
08.12.2019 00:00:00 11,1 10,0 5 3 SSW 1024,6 17 0,0
07.12.2019 23:00:00 11,0 9,6 8 4 S 1024,2 20 0,0
07.12.2019 22:00:00 11,1 9,0 5 3 S 1024,4 20 -
07.12.2019 21:00:00 11,6 8,8 5 3 S 1024,0 20 0,0
07.12.2019 20:00:00 11,5 8,5 5 3 SSW 1024,2 20 0,0
07.12.2019 19:00:00 11,5 7,8 5 3 SSW 1023,9 20 -
07.12.2019 18:00:00 12,0 8,5 4 2 SSW 1023,7 19 0,0
07.12.2019 17:00:00 12,5 9,7 2 1 S 1023,5 20 0,0
07.12.2019 16:00:00 12,7 9,3 8 4 SSW 1023,1 19 -
07.12.2019 15:00:00 12,9 8,4 5 3 SSW 1023,1 20 0,0
07.12.2019 14:00:00 12,6 8,3 5 3 S 1023,5 20 0,0
07.12.2019 13:00:00 11,4 7,7 8 4 SSW 1024,5 20 -
07.12.2019 12:00:00 11,2 6,9 5 3 SSE 1025,1 20 0,0
07.12.2019 11:00:00 8,9 7,0 5 3 S 1025,6 20 0,0
07.12.2019 10:00:00 5,4 5,4 2 1 SSE 1025,8 9 -
07.12.2019 09:00:00 4,5 4,2 2 1 SSE 1025,6 4,1 0,0
07.12.2019 08:00:00 4,8 4,2 2 1 SE 1025,1 4,5 0,0
07.12.2019 07:00:00 5,0 4,4 2 1 SE 1025,1 2,4 -
07.12.2019 06:00:00 6,4 5,7 2 1 S 1024,6 - 0,0
07.12.2019 05:00:00 6,7 6,4 2 1 SE 1024,8 9 0,0
07.12.2019 04:00:00 6,5 6,2 2 1 SSW 1025,0 8 -
07.12.2019 03:00:00 6,0 5,9 2 1 S 1025,0 7 0,0
07.12.2019 02:00:00 6,7 6,4 4 2 NW 1024,5 14 0,0
07.12.2019 01:00:00 6,4 6,4 2 1 SSE 1025,4 14 -
07.12.2019 00:00:00 5,1 5,1 4 2 S 1025,9 9 0,0
06.12.2019 23:00:00 4,5 3,9 4 2 S 1025,9 6 0,0
06.12.2019 22:00:00 4,5 4,1 4 2 SE 1025,7 8 -
06.12.2019 21:00:00 5,1 4,4 2 1 NW 1025,6 10 0,0
06.12.2019 20:00:00 6,1 5,1 2 1 SSE 1024,7 16 0,0
06.12.2019 19:00:00 7,3 5,6 2 1 S 1024,0 14 -
06.12.2019 18:00:00 10,3 6,8 4 2 S 1023,2 20 0,0
06.12.2019 17:00:00 12,7 6,9 4 2 SW 1022,4 19 0,0
06.12.2019 16:00:00 13,4 6,5 5 3 W 1022,2 20 -
06.12.2019 15:00:00 12,6 6,4 9 5 SSW 1022,9 20 0,0
06.12.2019 14:00:00 11,7 6,8 9 5 W 1023,8 20 0,0
06.12.2019 13:00:00 8,2 7,6 2 1 S 1024,8 16 -
06.12.2019 12:00:00 7,7 7,7 4 2 NNE 1025,2 17 0,0
06.12.2019 11:00:00 4,8 4,8 2 1 ESE 1026,5 1,4 0,0

tt = temperature
td = dewpoint
ff = wind speed
dd = wind direction
ppp = reduced air pressure
vv = visibility
rr = precipitation

Next stations